GEFSMW_con_maxscp_276.txt.gz
SCP
2 2 2 2 2 1 1 1 1 1 1 1 1 1 1 1 1 1 1 1 1 1 1 1 1 1 2 1 1 1 1 1 1 1 1 1 1 1 0 0 0 1 1
2 2 2 2 2 1 1 1 1 1 1 1 1 1 1 1 1 1 1 1 1 1 1 1 1 1 2 1 1 1 1 1 1 1 1 1 1 1 1 1 1 1 1
2 2 2 2 2 1 1 1 1 2 2 2 2 1 1 1 1 1 1 1 1 1 1 1 1 1 1 2 1 1 1 1 1 1 1 1 1 1 1 1 1 1 1
1 2 2 2 2 2 1 1 2 2 3 3 2 2 2 2 2 1 1 1 1 1 1 1 1 1 1 1 1 1 1 1 1 1 1 1 1 1 1 1 1 1 1
2 2 2 2 3 3 3 3 3 3 3 3 3 3 3 2 2 2 2 2 1 1 1 1 1 1 1 1 1 1 1 1 1 1 1 1 1 1 1 1 1 1 1
2 2 2 3 4 5 5 5 5 5 4 4 4 3 3 3 3 2 2 2 2 2 1 1 1 1 1 1 1 1 1 1 2 2 2 2 1 1 1 1 1 1 1
4 4 5 6 7 8 8 8 8 8 6 4 3 3 2 2 3 2 2 2 2 2 2 2 2 1 1 1 1 1 1 1 2 2 2 2 1 1 1 1 1 1 1
6 6 7 9 9 10 10 9 10 10 8 6 4 3 2 2 2 2 2 2 2 2 2 2 2 1 1 1 1 1 1 2 2 2 1 1 1 1 1 1 1 1 1
7 7 7 7 7 8 9 10 11 11 10 7 5 3 2 2 3 3 3 3 2 2 2 2 1 1 1 1 1 1 2 2 2 2 1 1 1 1 1 1 1 1 1
4 4 4 4 5 6 8 10 13 13 11 8 6 4 3 3 3 3 3 3 3 2 2 1 1 1 1 1 1 1 2 2 2 2 2 2 2 2 2 2 2 2 2
2 2 3 4 6 6 6 7 11 12 11 8 6 4 3 2 2 2 2 2 2 2 2 2 2 1 1 1 1 1 2 2 2 2 2 2 2 2 2 2 2 2 2
2 2 4 6 6 5 4 4 6 8 8 7 5 4 3 2 2 2 2 2 2 2 2 2 2 2 2 2 1 1 1 2 2 1 2 2 2 2 2 2 2 2 2
3 3 4 5 5 4 3 3 3 4 6 6 4 3 2 2 2 2 2 2 2 2 2 3 2 2 2 1 1 1 2 2 1 1 2 2 2 2 2 2 2 2 2
3 3 3 4 4 4 4 3 3 3 4 3 3 2 2 3 3 3 3 3 3 3 2 2 2 2 1 1 2 2 2 2 2 2 2 2 2 2 2 2 2 2 2
3 3 3 4 5 5 4 4 4 3 3 2 2 3 3 3 4 4 4 3 3 2 2 2 2 2 2 2 2 2 3 3 3 3 3 3 3 2 2 2 2 2 2
4 4 4 4 5 5 5 4 4 4 4 3 3 4 4 5 5 5 4 4 3 3 2 2 2 2 3 3 3 3 3 4 4 4 3 3 3 3 2 1 1 1 1
6 5 5 5 5 4 4 5 5 5 5 5 5 5 6 6 6 6 5 4 4 3 3 3 3 3 3 4 4 4 4 5 5 4 4 3 3 4 3 2 1 1 1
5 5 6 6 5 5 5 5 5 5 5 6 6 6 7 7 6 6 5 5 4 4 5 5 5 4 4 3 3 4 4 5 6 5 4 3 3 4 3 2 2 2 2
3 4 5 5 6 6 6 6 7 7 7 8 8 8 8 8 7 6 5 5 5 5 6 7 7 7 5 3 2 3 4 5 6 7 6 4 3 3 3 3 3 3 3
4 4 4 5 6 7 7 8 9 9 9 9 10 10 10 9 8 7 6 5 5 6 7 8 8 9 7 4 2 3 5 6 7 8 7 5 4 3 2 3 3 3 3
6 6 5 6 7 8 8 8 9 9 10 10 11 12 11 10 9 8 7 6 6 6 7 8 9 9 8 4 2 3 6 8 8 8 8 6 4 2 2 2 3 3 3
6 6 6 7 8 8 8 8 9 11 12 12 13 12 10 9 8 7 7 7 6 6 7 8 9 9 8 5 2 2 5 8 8 8 7 6 3 1 1 2 2 2 2
7 7 7 8 9 9 9 10 12 14 15 15 15 13 10 7 6 6 6 7 7 8 8 9 9 9 8 7 4 2 2 5 6 6 5 4 2 1 1 1 1 1 1
7 7 7 8 9 10 11 11 13 14 14 14 13 11 9 7 6 6 6 7 8 10 11 12 12 13 13 11 8 4 3 4 5 6 5 3 2 2 3 2 2 2 2
7 7 7 8 9 11 12 12 12 12 11 10 9 8 8 7 7 6 6 7 8 10 12 14 15 16 16 13 9 6 5 5 6 7 6 5 5 6 5 4 3 3 3
6 6 7 8 9 11 13 13 13 12 11 9 7 6 7 8 7 6 5 6 7 8 10 13 15 16 16 12 7 5 5 5 6 7 7 6 7 7 6 5 4 3 4

GEFSMW_con_maxscp_282.txt.gz
SCP
4 3 3 2 2 3 3 3 3 2 2 2 2 2 2 2 2 2 2 2 2 2 2 2 2 2 2 2 2 2 2 2 1 1 1 1 1 1 1 1 1 1 1
4 4 3 2 3 3 4 4 3 3 3 2 2 2 2 2 2 2 3 3 2 2 2 2 2 2 2 2 2 2 2 1 1 1 1 1 1 1 1 1 1 1 1
5 4 3 3 3 3 4 4 4 3 3 3 3 3 3 3 3 3 4 4 3 3 2 2 2 2 2 2 2 2 1 1 1 1 1 1 1 1 1 1 1 1 1
5 5 4 3 3 4 5 6 6 4 4 4 4 4 4 4 4 4 4 5 4 3 2 2 2 3 3 2 2 2 1 1 1 1 1 1 1 1 1 1 1 2 2
7 8 8 8 7 7 7 8 8 6 5 4 4 4 4 6 6 6 6 6 5 4 4 4 4 4 4 3 2 2 2 1 1 1 1 1 1 1 1 1 1 2 2
11 12 14 13 11 9 8 8 8 7 5 4 4 5 6 7 8 7 7 7 6 6 6 6 5 5 4 3 2 2 1 1 1 1 1 1 1 1 1 1 1 1 2
11 12 13 12 10 8 7 6 7 8 7 6 6 7 8 8 8 8 8 8 7 6 6 6 5 4 4 3 2 2 1 1 1 1 1 1 1 1 1 1 1 1 1
8 8 8 7 7 6 6 7 9 10 9 9 9 10 11 10 9 9 9 8 6 5 4 4 4 4 4 3 3 2 2 2 2 2 1 1 1 1 1 1 1 1 1
6 6 6 6 5 6 7 10 13 14 13 12 11 11 11 10 10 9 9 8 5 4 3 3 4 4 3 3 3 2 2 2 2 2 1 1 1 1 1 1 1 1 1
5 5 4 4 5 6 7 11 16 18 16 12 10 9 9 9 8 8 7 6 5 4 4 4 3 3 3 2 2 2 2 2 2 1 1 1 1 1 1 1 1 1 1
4 4 3 3 4 6 9 15 19 18 14 9 7 6 6 6 6 5 5 4 4 4 4 4 3 3 2 2 2 1 1 1 2 2 2 1 1 1 1 1 1 1 1
4 4 5 6 8 11 15 18 18 13 8 5 4 5 4 4 4 4 4 4 4 4 4 4 3 3 2 2 2 1 1 1 2 2 2 2 1 1 1 1 1 1 1
5 8 11 14 15 17 18 17 12 8 5 4 4 4 4 4 4 4 4 4 4 4 4 4 3 3 2 2 2 1 1 2 2 3 3 2 2 1 1 1 1 1 1
8 12 16 17 16 15 15 13 9 6 5 5 6 6 5 5 5 5 5 4 4 4 4 4 3 2 2 1 2 2 2 2 3 3 3 3 2 2 2 2 1 1 1
10 14 15 13 11 11 12 12 10 7 6 6 7 8 7 6 6 5 5 5 4 5 5 4 3 2 1 1 1 2 2 3 4 4 4 3 2 2 2 1 2 2 2
11 14 13 10 10 12 15 14 11 9 8 8 8 9 8 7 6 6 5 5 5 5 5 4 3 2 2 1 1 1 2 3 4 4 4 3 2 2 2 1 1 2 2
11 13 13 11 11 14 17 15 11 10 10 11 11 10 10 9 8 7 6 6 5 6 6 5 4 3 2 1 1 1 2 2 3 4 4 3 3 2 2 2 1 1 1
12 12 12 12 12 14 16 13 9 9 11 13 13 12 11 10 9 8 7 7 7 6 6 5 4 4 3 2 1 1 1 2 3 4 4 3 3 3 3 2 2 2 2
14 13 12 11 11 12 12 10 8 8 10 12 14 14 13 12 11 10 10 9 9 8 7 6 5 5 4 3 2 1 2 3 4 4 4 4 3 3 3 3 3 3 3
14 12 10 10 10 11 11 10 9 8 9 12 15 16 16 15 14 13 12 12 12 10 8 7 7 6 4 3 2 2 3 4 5 5 5 5 4 3 3 4 5 5 5
11 10 9 9 10 11 11 12 11 12 13 15 16 17 18 18 16 15 14 14 13 11 9 9 8 7 5 4 3 2 3 4 5 6 6 5 4 2 2 4 6 6 5
11 11 10 10 10 11 13 14 16 17 18 17 17 17 17 16 15 15 14 14 14 13 11 11 10 9 7 6 4 2 2 4 5 6 5 5 3 1 1 3 4 5 5
13 13 12 11 11 12 15 18 19 19 18 17 16 17 17 15 14 14 14 14 14 14 13 13 13 11 9 7 6 3 2 2 3 4 4 3 2 1 1 1 3 4 5
17 17 16 14 13 14 16 20 23 23 23 22 21 21 19 18 17 16 14 14 13 12 12 13 12 11 9 8 7 6 4 3 3 4 4 3 2 2 2 3 3 5 7
18 18 18 16 15 16 18 23 29 32 33 30 26 22 19 19 19 16 13 11 9 8 8 8 8 8 8 7 7 7 7 6 6 6 7 7 6 7 8 8 9 10 11
18 17 16 16 16 17 21 27 34 38 37 32 24 19 18 18 16 13 10 7 5 4 4 4 5 6 7 7 6 6 8 9 8 7 9 10 10 11 13 14 14 13 13

GEFSMW_con_maxscp_288.txt.gz
SCP
1 2 3 3 3 2 2 1 1 1 1 1 1 1 1 1 1 1 1 1 1 1 1 1 1 1 1 1 1 1 1 1 1 1 0 0 0 0 0 0 0 0 0
1 2 3 3 3 3 3 2 1 1 1 1 1 1 1 1 1 1 1 1 1 1 1 1 1 1 1 1 1 1 1 1 1 1 0 0 0 0 0 0 0 0 0
1 2 3 3 3 4 4 3 2 2 2 2 2 2 1 1 1 1 1 1 1 1 1 1 1 2 1 1 1 1 1 1 1 1 0 0 0 0 0 0 0 0 0
2 2 2 3 3 4 4 3 3 3 4 4 4 3 2 2 1 2 1 1 1 2 2 2 2 2 2 1 1 1 1 1 1 1 0 0 0 0 0 0 0 0 0
2 2 3 3 3 3 3 2 3 5 6 6 5 4 3 2 2 2 2 2 3 4 4 3 2 2 2 1 1 1 1 1 1 0 0 0 0 0 0 0 0 0 0
3 3 4 4 4 4 3 3 4 6 8 7 6 5 4 3 2 2 2 3 4 5 5 4 3 2 2 1 1 1 1 0 0 0 0 0 0 0 0 0 0 0 0
3 3 3 3 3 3 3 3 4 5 6 7 6 5 4 3 2 2 2 3 3 4 4 4 2 2 1 1 1 1 0 0 0 0 0 0 0 0 0 0 0 0 0
2 2 2 2 2 2 2 3 3 4 5 6 5 4 3 3 2 2 2 2 2 3 3 3 2 2 1 1 1 1 1 1 1 0 0 0 0 0 0 0 0 0 0
2 2 2 2 2 2 2 3 3 5 6 6 5 4 3 3 2 1 2 2 2 2 2 2 2 1 1 1 1 1 1 1 1 0 0 0 0 0 0 0 0 0 0
3 3 2 2 2 2 3 4 6 7 7 6 4 3 2 2 2 2 2 2 1 1 1 1 1 1 1 1 1 1 1 1 1 0 0 0 0 0 0 0 0 0 0
3 3 3 3 2 3 4 7 10 10 7 4 3 2 2 2 2 2 2 1 1 1 1 1 1 1 1 1 1 1 1 1 0 0 0 0 0 0 0 0 0 0 0
2 2 2 3 3 4 7 11 12 9 5 3 2 2 2 1 2 1 1 1 1 1 1 1 1 1 1 0 0 0 1 1 0 0 0 0 0 1 1 0 0 0 0
2 2 2 3 5 8 10 12 11 7 4 3 3 3 2 1 1 1 1 1 1 1 1 2 2 1 0 0 0 0 0 0 0 0 0 0 1 1 1 1 1 1 1
3 3 3 4 7 10 11 10 8 6 5 4 4 3 2 2 2 2 1 1 1 1 1 2 2 1 1 0 0 0 0 0 0 0 0 0 1 1 1 1 1 1 1
5 5 5 6 8 10 11 10 8 7 6 5 4 3 2 2 2 2 2 2 1 1 2 2 2 1 1 1 1 0 0 0 0 0 0 0 1 1 1 1 1 1 1
7 6 6 6 8 11 14 12 9 7 6 6 5 4 3 3 2 2 2 2 2 2 2 2 1 1 1 1 1 1 1 1 0 0 0 1 1 1 1 1 1 1 1
10 9 6 6 8 11 14 12 10 7 6 6 5 5 5 4 4 3 3 3 3 3 2 2 1 1 1 1 1 0 1 1 1 1 1 1 1 2 2 1 1 1 1
12 9 7 6 8 11 13 12 10 8 6 5 6 6 6 6 5 4 4 4 4 4 3 3 2 2 1 1 1 0 0 1 1 1 1 1 2 3 2 1 1 1 0
10 9 8 9 12 16 17 16 12 9 6 5 5 6 7 6 6 5 5 5 5 5 4 4 3 3 2 2 1 1 1 1 1 1 1 2 3 2 2 1 1 1 1
9 10 12 14 17 20 20 18 14 10 6 5 6 7 7 7 6 6 5 5 5 5 5 5 5 5 5 3 2 1 1 1 1 1 1 1 2 2 1 1 1 1 1
13 14 17 18 19 20 19 16 13 9 6 6 7 8 8 7 7 7 7 6 6 7 7 7 7 7 7 5 3 2 2 2 1 1 1 1 1 1 1 1 1 2 2
17 18 19 18 17 16 14 12 9 7 7 9 9 9 9 8 8 8 8 8 8 8 7 7 7 7 7 6 4 2 2 2 3 2 2 2 1 1 0 0 1 1 1
18 18 17 15 14 13 11 9 7 8 10 12 10 10 9 8 9 9 9 8 8 7 6 5 5 5 5 5 4 3 1 2 3 3 3 2 1 1 0 0 0 1 1
18 16 14 13 13 12 11 10 9 10 14 14 11 10 9 9 9 10 9 8 6 5 4 3 3 3 4 5 5 4 2 2 2 3 4 3 2 2 1 1 1 1 1
18 15 13 13 14 14 14 12 10 13 17 16 12 11 10 10 11 10 9 7 5 4 3 3 3 3 4 4 4 3 3 2 2 3 4 4 4 3 3 3 2 2 2
17 16 15 15 16 16 15 12 11 14 17 16 13 12 11 11 11 10 7 6 4 3 2 2 3 3 3 2 2 2 2 2 2 2 3 4 4 4 4 4 3 3 2

GEFSMW_con_maxscp_294.txt.gz
SCP
1 1 1 1 1 1 1 1 1 0 0 1 1 1 1 1 0 0 0 0 0 1 1 1 1 1 1 1 1 1 0 0 0 0 0 0 0 0 0 0 0 0 0
1 1 2 2 2 2 2 1 1 1 1 1 1 1 1 1 1 1 0 0 0 1 1 1 1 2 2 1 1 1 1 0 0 0 0 0 0 0 0 0 0 0 0
2 3 3 4 4 4 4 3 2 1 1 1 1 1 1 1 1 1 1 1 1 1 1 1 2 2 2 2 2 1 1 1 0 0 0 0 0 0 0 0 0 0 0
3 4 5 6 6 7 7 7 4 2 1 1 2 2 2 2 2 2 1 1 1 1 2 2 2 2 2 2 2 2 1 1 1 0 0 0 0 0 0 0 0 0 0
4 4 5 6 7 7 8 8 5 2 1 2 2 2 2 2 3 3 3 2 2 2 2 2 2 2 2 2 2 2 1 1 1 0 0 0 0 0 0 0 0 0 0
3 3 3 4 5 6 7 7 5 2 1 2 3 3 3 3 4 4 3 3 2 2 2 2 2 2 2 2 1 1 1 1 0 0 0 0 0 0 0 0 0 0 0
1 1 2 2 3 4 5 4 3 1 1 2 3 3 3 4 4 4 3 2 2 2 2 2 2 1 1 1 1 1 0 0 0 0 0 0 0 0 0 0 0 0 0
1 1 1 1 2 2 2 2 2 1 1 2 2 3 3 3 3 3 3 2 2 2 1 1 1 1 1 1 0 0 0 0 0 0 0 0 0 0 0 0 0 0 0
1 1 1 1 1 1 1 1 1 1 1 3 3 3 2 2 2 2 2 2 1 1 1 1 1 1 1 1 0 0 0 0 0 0 0 0 0 0 0 0 0 0 0
1 1 1 1 1 1 1 1 1 1 2 4 5 4 2 1 1 1 1 1 1 1 1 1 1 1 1 0 0 0 0 0 0 0 0 0 0 0 0 0 0 0 0
1 1 1 1 1 1 1 1 1 2 3 4 5 3 2 1 1 1 1 0 0 0 0 0 0 0 0 0 0 0 0 0 0 0 0 0 0 0 0 0 0 0 0
1 1 1 1 1 1 1 1 2 3 4 4 3 2 1 1 0 0 0 0 0 0 0 0 1 1 1 0 0 0 0 0 0 0 0 0 0 0 0 1 1 1 1
2 1 1 1 1 1 2 2 3 3 4 3 3 2 2 1 1 1 1 0 0 0 1 1 1 1 1 1 0 0 0 0 0 0 1 1 1 0 1 1 1 1 1
2 2 1 1 1 2 2 2 3 4 4 3 3 3 3 2 1 1 1 1 1 1 1 1 1 1 1 1 1 1 0 0 0 0 1 1 1 1 1 1 1 1 1
2 2 2 1 2 2 2 3 4 5 5 4 4 4 4 3 2 1 1 1 1 1 1 1 1 1 1 1 1 1 1 0 0 0 0 1 1 0 0 1 1 1 1
2 2 2 2 2 2 2 3 4 6 6 5 4 4 4 3 2 2 2 2 1 1 1 2 2 2 1 1 1 1 1 1 0 0 1 1 0 0 0 0 1 1 1
3 2 2 2 2 3 3 4 5 6 6 5 4 4 4 3 2 2 2 2 2 2 2 2 2 2 1 1 0 0 0 1 1 1 1 1 1 0 0 0 0 0 1
4 4 3 2 3 4 5 5 6 6 5 3 3 3 3 2 2 3 3 3 3 3 3 3 3 3 2 1 0 0 0 1 1 1 1 1 1 0 0 1 0 0 1
4 4 3 3 4 6 8 7 6 5 4 3 2 2 2 2 3 3 3 3 3 3 3 3 3 3 2 1 1 0 1 1 1 1 1 1 1 0 0 1 0 0 0
3 3 3 3 4 7 9 9 7 5 4 3 3 3 3 3 3 3 3 3 4 4 4 4 3 3 2 2 1 1 1 2 2 2 2 1 1 0 0 1 1 0 0
3 3 3 3 4 7 9 9 8 7 5 4 3 3 3 3 4 4 4 4 4 4 4 4 4 3 2 1 1 0 1 2 2 2 3 2 2 1 0 0 1 1 0
3 3 3 4 5 7 9 9 9 8 6 5 4 4 3 3 4 5 5 5 6 6 5 5 4 3 3 2 1 0 0 1 2 2 2 2 1 1 0 0 0 1 0
4 4 4 5 6 8 10 10 10 9 7 6 6 5 5 6 6 6 6 7 7 7 7 6 5 4 3 3 2 1 0 0 1 2 2 1 1 0 0 0 0 1 1
4 4 4 5 6 9 11 12 11 9 7 7 7 9 10 11 10 9 8 8 8 8 8 7 5 4 3 2 2 2 1 1 1 1 1 1 1 1 1 1 1 1 1
5 5 5 6 7 9 11 12 12 10 9 10 11 13 15 16 14 11 9 9 8 8 8 7 5 4 3 2 2 2 1 1 1 1 1 1 1 2 3 3 3 3 3
7 7 7 7 7 9 11 10 10 11 12 12 14 16 18 19 17 13 10 9 8 8 7 7 5 4 2 1 1 1 1 1 1 1 1 2 2 3 4 4 5 5 4